New Philadelphia, OH

2:26 AM EST on December 18, 2017 (GMT -0500)
Clever

Weather History for KPHD - May, 2014

Change the Weather History Date:

Tuesday, May 13, 2014

  Actual Average Record
Temperature  
Mean Temperature 76 °F 59 °F  
Max Temperature 87 °F 71 °F 88 °F (1991)
Min Temperature 64 °F 47 °F 30 °F (2013)
Degree Days  
Heating Degree Days 0 7  
Month to date heating degree days 78 106  
Since 1 July heating degree days 6082 5521  
Cooling Degree Days 11 1  
Month to date cooling degree days 29 4  
Year to date cooling degree days 30 11  
Growing Degree Days 26 (Base 50)    
Moisture  
Dew Point 63 °F    
Average Humidity 67    
Maximum Humidity 93    
Minimum Humidity 40    
Precipitation  
Precipitation 0.00 in 0.12 in 1.01 in (1980)
Month to date precipitation 1.92 1.54  
Year to date precipitation 13.71 12.97  
Sea Level Pressure  
Sea Level Pressure 30.04 in    
Wind  
Wind Speed 7 mph (SSE)    
Max Wind Speed 16 mph    
Max Gust Speed 21 mph    
Visibility 10 miles    
Events Thunderstorm    
T = Trace of Precipitation, MM = Missing Value Source: NWS Daily Summary

Daily Weather History Graph

Daily Weather History Graph

Search for Another Location

Airport or City:

Trip Planner

Search our weather history database for the weather conditions in past years. The results will help you decide how hot, cold, wet, or windy it might be!

Date:

Astronomy

May. 13, 2014 Rise Set
Actual Time 6:11 AM EDT 8:33 PM EDT
Civil Twilight 5:40 AM EDT 9:04 PM EDT
Nautical Twilight 5:02 AM EDT 9:42 PM EDT
Astronomical Twilight 4:20 AM EDT 10:24 PM EDT
Moon 7:33 PM EDT (5/13) 5:27 AM EDT (5/13)
Length of Visible Light 15h 23m
Length of Day
14h 22m
Waxing Gibbous, 98% of the Moon is Illuminated
May 13
Waxing Gibbous
May 14
Full
May 21
Last Quarter
May 28
New
Jun 5
First Quarter

Hourly Weather History & Observations

Time (EDT) Temp. Heat Index Dew Point Humidity Pressure Visibility Wind Dir Wind Speed Gust Speed Precip Events Conditions
12:11 AM 70.0 °F - 64.9 °F 84% 30.06 in 10.0 mi East 6.9 mph - N/A   Mostly Cloudy
12:53 AM 69.1 °F - 63.0 °F 81% 30.08 in 10.0 mi ESE 4.6 mph - N/A   Overcast
2:53 AM 66.0 °F - 63.0 °F 90% 30.06 in 10.0 mi SE 4.6 mph - N/A   Clear
3:53 AM 66.0 °F - 63.0 °F 90% 30.04 in 10.0 mi ESE 8.1 mph - N/A   Clear
4:53 AM 64.9 °F - 63.0 °F 93% 30.04 in 10.0 mi ESE 9.2 mph - N/A   Clear
5:53 AM 64.0 °F - 62.1 °F 93% 30.05 in 10.0 mi SE 9.2 mph - N/A   Clear
6:53 AM 64.9 °F - 62.1 °F 90% 30.06 in 10.0 mi ESE 8.1 mph - N/A   Clear
7:53 AM 66.9 °F - 63.0 °F 87% 30.07 in 10.0 mi SE 8.1 mph - N/A   Clear
9:53 AM 75.0 °F - 66.9 °F 76% 30.07 in 10.0 mi SSE 6.9 mph - N/A   Clear
10:53 AM 80.1 °F 82.1 °F 66.0 °F 62% 30.07 in 10.0 mi Variable 6.9 mph - N/A   Clear
12:53 PM 84.0 °F 84.5 °F 62.1 °F 47% 30.06 in 10.0 mi WSW 9.2 mph 18.4 mph N/A   Partly Cloudy
1:53 PM 84.0 °F 84.5 °F 62.1 °F 47% 30.05 in 10.0 mi SW 8.1 mph - N/A   Partly Cloudy
2:53 PM 86.0 °F 86.3 °F 62.1 °F 44% 30.03 in 10.0 mi WSW 12.7 mph - N/A   Scattered Clouds
3:53 PM 87.1 °F 87.0 °F 61.0 °F 41% 30.01 in 10.0 mi SW 11.5 mph 19.6 mph N/A   Clear
4:53 PM 87.1 °F 87.0 °F 61.0 °F 41% 30.00 in 10.0 mi SSW 11.5 mph 18.4 mph N/A   Partly Cloudy
5:53 PM 87.1 °F 87.0 °F 61.0 °F 41% 30.00 in 10.0 mi SSW 9.2 mph - N/A   Scattered Clouds
6:53 PM 84.9 °F 85.0 °F 61.0 °F 44% 30.00 in 10.0 mi SSW 6.9 mph - N/A   Partly Cloudy
7:53 PM 84.0 °F 84.4 °F 61.0 °F 46% 30.01 in 10.0 mi SSW 4.6 mph - N/A   Clear
8:53 PM 79.0 °F - 63.0 °F 58% 30.01 in 10.0 mi Calm Calm - N/A   Mostly Cloudy
9:00 PM 78.1 °F - 64.0 °F 62% 30.03 in 10.0 mi Calm Calm - N/A Thunderstorm Mostly Cloudy
9:15 PM 77.0 °F - 64.9 °F 66% 30.05 in 10.0 mi SE 6.9 mph - N/A   Mostly Cloudy
9:53 PM 75.0 °F - 64.9 °F 71% 30.03 in 10.0 mi Calm Calm - N/A   Clear
10:53 PM 72.0 °F - 66.0 °F 81% 30.04 in 10.0 mi SE 4.6 mph - N/A   Clear
11:53 PM 69.1 °F - 64.9 °F 87% 30.05 in 10.0 mi Calm Calm - N/A   Mostly Cloudy